Location: Robledo de Chavela
(40.5014°N, 4.2377°W)
Time: 10:02:52
(UTC+00:00)

SPOT 3 Rocket - Pass Details

Date: 18 April 2024
Orbit: 776 x 793 km, 98.6° (Epoch: 20 May)

Event Time Altitude Azimuth Distance (km) Brightness Sun altitude
Exits shadow 21:35:45 65° 58° (ENE) 865 3.6 -26.4°
Drops below altitude 10° 21:40:42 10° 352° (N) 2,356 6.7 -27.0°
Sets 21:43:02 0° 350° (N) 3,286 7.6 -27.3°
